• In Hungary
  • List of Countries
  • For 7 days
  • Water Temperature
  • Satellite Maps
  • Weather Map
  • News
  • Weather Widgets
  • user-avatar
    Login

    Hourly Weather Sagarchin

    Today, 22 October, Monday

    Time Temperature Precipitation Wind Pressure Humidity
    00:00 +4°C° 0 mm 3 mps 755 mmHg 73%
    01:00 +3°C° 0 mm 3 mps 755 mmHg 74%
    02:00 +3°C° 0 mm 3 mps 755 mmHg 75%
    03:00 +3°C° 0 mm 3 mps 755 mmHg 75%
    04:00 +2°C° 0 mm 3 mps 755 mmHg 76%
    05:00 +2°C° 0 mm 3 mps 756 mmHg 77%
    06:00 +3°C° 0 mm 2 mps 756 mmHg 77%
    07:00 +3°C° 0 mm 2 mps 756 mmHg 78%
    08:00 +3°C° 0 mm 3 mps 756 mmHg 71%
    09:00 +4°C° 0 mm 3 mps 756 mmHg 65%
    10:00 +5°C° 0 mm 3 mps 756 mmHg 58%
    11:00 +7°C° 0 mm 3 mps 756 mmHg 54%
    12:00 +8°C° 0 mm 2 mps 756 mmHg 49%
    13:00 +9°C° 0 mm 2 mps 756 mmHg 45%
    14:00 +9°C° 0 mm 2 mps 756 mmHg 44%
    15:00 +9°C° 0 mm 2 mps 756 mmHg 43%
    16:00 +9°C° 0 mm 2 mps 756 mmHg 42%
    17:00 +8°C° 0 mm 2 mps 756 mmHg 45%
    18:00 +7°C° 0 mm 2 mps 756 mmHg 48%
    19:00 +6°C° 0 mm 2 mps 756 mmHg 52%
    20:00 +6°C° 0 mm 2 mps 756 mmHg 53%
    21:00 +5°C° 0 mm 2 mps 756 mmHg 54%
    22:00 +5°C° 0 mm 2 mps 756 mmHg 55%
    23:00 +5°C° 0 mm 2 mps 756 mmHg 56%

    Tomorrow, 23 October, Tuesday

    Time Temperature Precipitation Wind Pressure Humidity
    00:00 +4°C° 0 mm 2 mps 756 mmHg 57%
    01:00 +4°C° 0 mm 2 mps 756 mmHg 58%
    02:00 +4°C° 0 mm 2 mps 755 mmHg 60%
    03:00 +4°C° 0 mm 2 mps 755 mmHg 62%
    04:00 +3°C° 0 mm 2 mps 755 mmHg 64%
    05:00 +3°C° 0 mm 2 mps 755 mmHg 66%
    06:00 +3°C° 0 mm 2 mps 755 mmHg 68%
    07:00 +3°C° 0 mm 2 mps 755 mmHg 70%
    08:00 +4°C° 0 mm 3 mps 755 mmHg 65%
    09:00 +5°C° 0 mm 3 mps 754 mmHg 60%
    10:00 +7°C° 0 mm 4 mps 754 mmHg 55%
    11:00 +10°C° 0 mm 4 mps 754 mmHg 52%
    12:00 +11°C° 0 mm 4 mps 753 mmHg 48%
    13:00 +13°C° 0 mm 5 mps 753 mmHg 45%
    14:00 +13°C° 0 mm 4 mps 752 mmHg 46%
    15:00 +13°C° 0 mm 4 mps 752 mmHg 46%
    16:00 +14°C° 0 mm 4 mps 751 mmHg 47%
    17:00 +13°C° 0 mm 4 mps 751 mmHg 51%
    18:00 +12°C° 0 mm 4 mps 751 mmHg 55%
    19:00 +11°C° 0 mm 4 mps 750 mmHg 59%
    20:00 +10°C° 0 mm 5 mps 750 mmHg 61%
    21:00 +10°C° 0 mm 5 mps 750 mmHg 63%
    22:00 +10°C° 0 mm 6 mps 750 mmHg 65%
    23:00 +10°C° 0 mm 6 mps 750 mmHg 66%

    Day after tomorrow, 24 October, Wednesday

    Time Temperature Precipitation Wind Pressure Humidity
    00:00 +10°C° 0 mm 6 mps 749 mmHg 66%
    01:00 +9°C° 0 mm 6 mps 749 mmHg 66%
    02:00 +9°C° 0 mm 6 mps 749 mmHg 66%
    03:00 +9°C° 0 mm 7 mps 749 mmHg 65%
    04:00 +9°C° 0 mm 7 mps 748 mmHg 65%
    05:00 +9°C° 0 mm 7 mps 748 mmHg 65%
    06:00 +9°C° 0 mm 7 mps 748 mmHg 65%
    07:00 +8°C° 0 mm 7 mps 748 mmHg 65%
    08:00 +9°C° 0 mm 7 mps 748 mmHg 61%
    09:00 +9°C° 0 mm 7 mps 747 mmHg 57%
    10:00 +10°C° 0 mm 7 mps 747 mmHg 53%
    11:00 +10°C° 0 mm 7 mps 747 mmHg 51%
    12:00 +11°C° 0 mm 7 mps 747 mmHg 49%
    13:00 +12°C° 0 mm 7 mps 746 mmHg 46%
    14:00 +13°C° 0 mm 6 mps 746 mmHg 45%
    15:00 +14°C° 0 mm 6 mps 746 mmHg 44%
    16:00 +15°C° 0 mm 5 mps 746 mmHg 42%
    17:00 +14°C° 0 mm 5 mps 746 mmHg 46%
    18:00 +13°C° 0 mm 5 mps 746 mmHg 49%
    19:00 +12°C° 0 mm 5 mps 746 mmHg 53%
    20:00 +12°C° 0 mm 5 mps 746 mmHg 55%
    21:00 +10°C° 0 mm 6 mps 746 mmHg 58%
    22:00 +10°C° 0 mm 6 mps 746 mmHg 61%
    23:00 +10°C° 0 mm 6 mps 746 mmHg 62%

    25 October, Thursday

    Time Temperature Precipitation Wind Pressure Humidity
    00:00 +10°C° 0 mm 6 mps 746 mmHg 63%
    01:00 +10°C° 0 mm 6 mps 745 mmHg 65%
    02:00 +9°C° 0 mm 6 mps 745 mmHg 66%
    03:00 +9°C° 0 mm 6 mps 745 mmHg 68%
    04:00 +8°C° 0 mm 6 mps 745 mmHg 69%
    05:00 +8°C° 0 mm 7 mps 745 mmHg 66%
    06:00 +8°C° 0 mm 7 mps 745 mmHg 62%
    07:00 +8°C° 0 mm 7 mps 744 mmHg 59%
    08:00 +10°C° 0 mm 8 mps 744 mmHg 52%
    09:00 +11°C° 0 mm 9 mps 744 mmHg 45%
    10:00 +13°C° 0 mm 10 mps 744 mmHg 39%
    11:00 +16°C° 0 mm 10 mps 743 mmHg 35%
    12:00 +17°C° 0 mm 10 mps 743 mmHg 32%
    13:00 +19°C° 0 mm 10 mps 742 mmHg 29%
    14:00 +18°C° 0 mm 10 mps 742 mmHg 30%
    15:00 +18°C° 0 mm 10 mps 742 mmHg 30%
    16:00 +18°C° 0 mm 9 mps 741 mmHg 31%
    17:00 +17°C° 0 mm 9 mps 741 mmHg 32%
    18:00 +17°C° 0 mm 9 mps 741 mmHg 33%
    19:00 +16°C° 0 mm 9 mps 741 mmHg 35%
    20:00 +16°C° 0.1 mm 9 mps 741 mmHg 35%
    21:00 +16°C° 0.1 mm 9 mps 740 mmHg 36%
    22:00 +16°C° 0.1 mm 9 mps 740 mmHg 37%
    23:00 +15°C° 0 mm 9 mps 740 mmHg 37%

    26 October, Friday

    Time Temperature Precipitation Wind Pressure Humidity
    00:00 +15°C° 0 mm 9 mps 739 mmHg 38%
    01:00 +15°C° 0 mm 9 mps 739 mmHg 38%
    02:00 +15°C° 0 mm 9 mps 738 mmHg 39%
    03:00 +15°C° 0 mm 9 mps 738 mmHg 40%
    04:00 +15°C° 0 mm 9 mps 737 mmHg 41%
    05:00 +15°C° 0 mm 8 mps 737 mmHg 41%
    06:00 +15°C° 0 mm 8 mps 737 mmHg 41%
    07:00 +15°C° 0 mm 8 mps 737 mmHg 41%
    08:00 +15°C° 0 mm 8 mps 737 mmHg 41%
    09:00 +16°C° 0 mm 8 mps 737 mmHg 41%
    10:00 +17°C° 0 mm 7 mps 737 mmHg 41%
    11:00 +16°C° 0 mm 7 mps 738 mmHg 47%
    12:00 +16°C° 0 mm 6 mps 738 mmHg 53%
    13:00 +15°C° 0 mm 6 mps 738 mmHg 58%
    14:00 +15°C° 0.5 mm 6 mps 739 mmHg 58%
    15:00 +14°C° 0.5 mm 5 mps 739 mmHg 58%
    16:00 +13°C° 0.5 mm 5 mps 740 mmHg 59%
    17:00 +12°C° 0.2 mm 4 mps 740 mmHg 56%
    18:00 +12°C° 0.2 mm 4 mps 741 mmHg 53%
    19:00 +11°C° 0.2 mm 3 mps 742 mmHg 50%
    20:00 +10°C° 0 mm 3 mps 742 mmHg 52%
    21:00 +10°C° 0 mm 4 mps 743 mmHg 53%
    22:00 +8°C° 0 mm 4 mps 743 mmHg 54%
    23:00 +8°C° 0 mm 4 mps 743 mmHg 55%

    27 October, Saturday

    Time Temperature Precipitation Wind Pressure Humidity
    00:00 +8°C° 0 mm 4 mps 744 mmHg 56%
    01:00 +8°C° 0 mm 4 mps 744 mmHg 56%
    02:00 +7°C° 0 mm 4 mps 744 mmHg 58%
    03:00 +8°C° 0 mm 3 mps 744 mmHg 60%
    04:00 +7°C° 0 mm 3 mps 744 mmHg 61%
    05:00 +6°C° 0 mm 4 mps 744 mmHg 63%
    06:00 +5°C° 0 mm 4 mps 745 mmHg 65%
    07:00 +5°C° 0 mm 4 mps 745 mmHg 67%
    08:00 +5°C° 0 mm 5 mps 745 mmHg 64%
    09:00 +5°C° 0 mm 6 mps 746 mmHg 62%
    10:00 +5°C° 0 mm 7 mps 746 mmHg 59%
    11:00 +5°C° 0 mm 7 mps 746 mmHg 56%
    12:00 +6°C° 0 mm 8 mps 747 mmHg 52%
    13:00 +6°C° 0 mm 8 mps 747 mmHg 49%
    14:00 +6°C° 0 mm 8 mps 747 mmHg 48%
    15:00 +5°C° 0 mm 7 mps 748 mmHg 48%
    16:00 +5°C° 0 mm 7 mps 748 mmHg 47%
    17:00 +5°C° 0 mm 7 mps 749 mmHg 50%
    18:00 +4°C° 0 mm 7 mps 750 mmHg 52%
    19:00 +4°C° 0 mm 6 mps 751 mmHg 55%
    20:00 +3°C° 0 mm 6 mps 751 mmHg 55%
    21:00 +3°C° 0 mm 5 mps 752 mmHg 55%
    22:00 +4°C° 0 mm 4 mps 752 mmHg 55%
    23:00 +3°C° 0 mm 4 mps 753 mmHg 57%
    Show more